Flag for Ireland Weather past 2 weeks in Cork, Ireland

Now
62 °F

Overcast.


Feels Like: 62 °F
Forecast: 46 / 64 °F
Wind: 8 mph from Northwest

Location: Cork Airport

Current Time: May 22, 2015 at 6:16:09 PM

Latest Report: May 22, 2015 at 5:00 PM


Visibility: 44 mi

Pressure: 30.31 "Hg

Humidity: 72%

Dew point: 53 °F

Location of CorkLocation

Historic Weather in Cork — Graph

°F

Cork temperature yesterday

Maximum temperature yesterday: 62 °F (at 2:00 PM)
Minimum temperature yesterday: 43 °F (at 6:00 AM)
Average temperature yesterday: 53 °F

Past Weeks' High & Low Weather Summary

 TemperatureHumidityPressure
High64 °F (May 22, 4:00 PM)100% (May 8, 10:00 AM)30.42 "Hg (May 8, 10:00 AM)
Low41 °F (May 9, 7:00 AM)47% (May 16, 5:00 PM)29.59 "Hg (May 8, 3:00 PM)
Average50 °F85%30.03 "Hg
* Reported May 7 5:00 PM — May 22 5:00 PM, Cork, Weather by CustomWeather, © 2015

Note: Actual official high and low records may vary slightly from our data, if they occured in-between our weather recording intervals... More about our weather records

Advertising

Cork weather history for previous 24 hours

 ConditionsComfort  
Time TempWeatherWind HumidityBarometerVisibility
5:00 PM
Fri, May 22
62 °FOvercast.8 mph72%30.31 "Hg43 mi
4:00 PM64 °FOvercast.8 mph68%30.31 "Hg47 mi
3:00 PM64 °FOvercast.8 mph68%30.31 "Hg47 mi
2:00 PM63 °FPartly sunny.7 mph71%30.31 "Hg25 mi
1:00 PM60 °FSprinkles. Overcast.5 mph86%30.32 "Hg25 mi
12:00 PM61 °FOvercast.5 mph79%30.32 "Hg47 mi
11:00 AM59 °FLow clouds.3 mph83%30.33 "Hg47 mi
10:00 AM58 °FLow clouds.3 mph82%30.33 "Hg43 mi
9:00 AM56 °FLow clouds.3 mph87%30.33 "Hg43 mi
8:00 AM56 °FPartly sunny.5 mph92%30.33 "Hg43 mi
7:00 AM53 °FPartly sunny.5 mph97%30.32 "Hg19 mi
6:00 AM53 °FLow clouds.6 mph99%30.32 "Hg19 mi
5:00 AM53 °FPassing clouds.5 mph98%30.32 "Hg16 mi
4:00 AM53 °FPassing clouds.5 mph99%30.33 "Hg16 mi
3:00 AM53 °FPassing clouds.5 mph98%30.34 "Hg16 mi
2:00 AM53 °FPassing clouds.6 mph97%30.34 "Hg16 mi
1:00 AM52 °FPassing clouds.6 mph98%30.35 "Hg19 mi
12:00 AM53 °FPassing clouds.3 mph96%30.35 "Hg19 mi
11:00 PM
Thu, May 21
54 °FLow clouds.3 mph95%30.35 "Hg19 mi
10:00 PM55 °FLow clouds.5 mph92%30.35 "Hg19 mi
9:00 PM56 °FLow clouds.3 mph94%30.34 "Hg25 mi
8:00 PM56 °FLow clouds.5 mph94%30.33 "Hg31 mi
7:00 PM58 °FOvercast.6 mph89%30.32 "Hg31 mi
6:00 PM58 °FOvercast.6 mph86%30.33 "Hg31 mi
Weather by CustomWeather, © 2015

See weather overviewHow to use our weather pages